Location: Bakov nad Jizerou
(50.4784°N, 14.9394°E)
Time: 23:20:29
(UTC+00:00)

Cosmos 1892 Rocket - Visible Passes

Search period start: 23 October 2021 00:00
Search period end: 02 November 2021 00:00
Orbit: 607 x 632 km, 82.5° (Epoch: 23 October)

Date Brightness Start Highest point End Pass type
(mag) Time Alt. Az. Time Alt. Az. Time Alt. Az.
23 Oct 7.0 04:24:14 10° ESE 04:26:07 13° E 04:28:00 10° NE visible
23 Oct 6.1 17:41:02 10° NNW 17:44:37 24° W 17:48:09 10° SW visible
24 Oct 6.6 04:39:58 10° SE 04:43:18 21° E 04:46:39 10° NE visible
24 Oct 3.5 16:20:04 10° N 16:24:32 71° ENE 16:28:57 10° SSE visible
24 Oct 6.9 17:59:23 10° NW 18:01:50 15° W 18:04:14 10° WSW visible
25 Oct 5.6 04:56:32 10° SSE 05:00:34 35° E 05:04:39 10° NNE visible
25 Oct 4.0 16:37:35 10° NNW 16:42:02 67° W 16:46:23 10° S visible
26 Oct 5.2 16:55:17 10° NNW 16:59:25 38° W 17:03:29 10° SSW visible
27 Oct 7.0 03:56:04 10° ESE 03:58:12 13° E 04:00:20 10° NE visible
27 Oct 6.3 17:13:13 10° NW 17:16:42 23° W 17:20:08 10° SW visible
28 Oct 6.4 04:11:57 10° SE 04:15:24 22° E 04:18:50 10° NE visible
28 Oct 6.9 17:31:41 10° NW 17:33:53 14° W 17:36:06 10° WSW visible
29 Oct 5.4 04:28:35 10° SSE 04:32:41 37° E 04:36:48 10° NNE visible
29 Oct 4.2 16:09:44 10° NNW 16:14:08 63° W 16:18:28 10° S visible
30 Oct 4.2 04:45:39 10° S 04:50:04 64° E 04:54:31 10° NNE visible
30 Oct 5.4 16:27:27 10° NNW 16:31:30 36° W 16:35:31 10° SSW visible
31 Oct 6.9 03:27:58 10° ESE 03:30:17 14° E 03:32:36 10° NE visible
31 Oct 3.6 05:03:04 10° SSW 05:07:32 75° W 05:12:03 10° N visible
31 Oct 6.4 16:45:25 10° NW 16:48:47 21° W 16:52:07 10° SW visible
01 Nov 6.1 03:43:57 10° SE 03:47:29 23° E 03:51:02 10° NE visible
01 Nov 6.9 17:04:01 10° NW 17:05:59 13° W 17:07:56 10° WSW visible
